Previsão horária em Almegijar

Hoje, 16 Janeiro, Sábado

Tempo Temperatura Precipitação Vento Pressão Humidade
00:00 +5°C° 0 mm 2 m/s 685 mmHg 33%
01:00 +5°C° 0 mm 2 m/s 685 mmHg 32%
02:00 +4°C° 0 mm 3 m/s 685 mmHg 32%
03:00 +4°C° 0 mm 3 m/s 685 mmHg 31%
04:00 +4°C° 0 mm 3 m/s 685 mmHg 33%
05:00 +4°C° 0 mm 3 m/s 685 mmHg 34%
06:00 +4°C° 0 mm 3 m/s 685 mmHg 35%
07:00 +5°C° 0 mm 3 m/s 686 mmHg 38%
08:00 +7°C° 0 mm 2 m/s 686 mmHg 40%
09:00 +8°C° 0 mm 2 m/s 687 mmHg 42%
10:00 +9°C° 0 mm 2 m/s 687 mmHg 42%
11:00 +10°C° 0 mm 2 m/s 687 mmHg 42%
12:00 +11°C° 0 mm 3 m/s 687 mmHg 42%
13:00 +11°C° 0 mm 3 m/s 687 mmHg 44%
14:00 +11°C° 0 mm 3 m/s 687 mmHg 46%
15:00 +11°C° 0 mm 3 m/s 687 mmHg 48%
16:00 +9°C° 0 mm 2 m/s 687 mmHg 50%
17:00 +8°C° 0 mm 2 m/s 686 mmHg 51%
18:00 +6°C° 0 mm 2 m/s 686 mmHg 53%
19:00 +6°C° 0 mm 2 m/s 687 mmHg 51%
20:00 +5°C° 0 mm 2 m/s 687 mmHg 49%
21:00 +6°C° 0 mm 1 m/s 687 mmHg 47%
22:00 +6°C° 0 mm 1 m/s 687 mmHg 45%
23:00 +6°C° 0 mm 1 m/s 688 mmHg 44%

Amanhã, 17 Janeiro, Domingo

Tempo Temperatura Precipitação Vento Pressão Humidade
00:00 +6°C° 0 mm 1 m/s 688 mmHg 42%
01:00 +6°C° 0 mm 1 m/s 687 mmHg 41%
02:00 +6°C° 0 mm 1 m/s 687 mmHg 40%
03:00 +5°C° 0 mm 1 m/s 687 mmHg 39%
04:00 +5°C° 0 mm 1 m/s 687 mmHg 38%
05:00 +5°C° 0 mm 1 m/s 687 mmHg 36%
06:00 +5°C° 0 mm 1 m/s 687 mmHg 35%
07:00 +7°C° 0 mm 1 m/s 687 mmHg 37%
08:00 +9°C° 0 mm 1 m/s 687 mmHg 39%
09:00 +9°C° 0 mm 0 m/s 688 mmHg 41%
10:00 +10°C° 0 mm 0 m/s 688 mmHg 40%
11:00 +12°C° 0 mm 1 m/s 688 mmHg 40%
12:00 +14°C° 0 mm 1 m/s 688 mmHg 39%
13:00 +13°C° 0 mm 1 m/s 688 mmHg 42%
14:00 +13°C° 0 mm 1 m/s 687 mmHg 44%
15:00 +13°C° 0 mm 1 m/s 687 mmHg 46%
16:00 +12°C° 0 mm 1 m/s 686 mmHg 49%
17:00 +10°C° 0 mm 1 m/s 686 mmHg 51%
18:00 +8°C° 0 mm 1 m/s 686 mmHg 53%
19:00 +8°C° 0 mm 1 m/s 686 mmHg 50%
20:00 +8°C° 0 mm 1 m/s 686 mmHg 48%
21:00 +8°C° 0 mm 1 m/s 686 mmHg 45%
22:00 +8°C° 0 mm 1 m/s 686 mmHg 44%
23:00 +7°C° 0 mm 1 m/s 686 mmHg 43%

Depois de amanhã, 18 Janeiro, Segunda-feira

Tempo Temperatura Precipitação Vento Pressão Humidade
00:00 +7°C° 0 mm 1 m/s 686 mmHg 43%
01:00 +7°C° 0 mm 1 m/s 686 mmHg 42%
02:00 +7°C° 0 mm 1 m/s 686 mmHg 42%
03:00 +7°C° 0 mm 1 m/s 685 mmHg 42%
04:00 +7°C° 0 mm 1 m/s 685 mmHg 43%
05:00 +7°C° 0 mm 1 m/s 685 mmHg 43%
06:00 +6°C° 0 mm 1 m/s 685 mmHg 43%
07:00 +8°C° 0 mm 1 m/s 685 mmHg 45%
08:00 +9°C° 0 mm 1 m/s 686 mmHg 47%
09:00 +10°C° 0 mm 1 m/s 686 mmHg 49%
10:00 +11°C° 0 mm 1 m/s 686 mmHg 48%
11:00 +12°C° 0 mm 1 m/s 687 mmHg 46%
12:00 +13°C° 0 mm 1 m/s 687 mmHg 45%
13:00 +13°C° 0 mm 1 m/s 686 mmHg 46%
14:00 +13°C° 0 mm 1 m/s 686 mmHg 48%
15:00 +13°C° 0 mm 1 m/s 686 mmHg 50%
16:00 +11°C° 0 mm 1 m/s 685 mmHg 56%
17:00 +8°C° 0 mm 0 m/s 685 mmHg 62%
18:00 +7°C° 0 mm 0 m/s 685 mmHg 67%
19:00 +6°C° 0 mm 0 m/s 685 mmHg 67%
20:00 +6°C° 0 mm 0 m/s 685 mmHg 66%
21:00 +7°C° 0 mm 1 m/s 686 mmHg 65%
22:00 +6°C° 0 mm 1 m/s 686 mmHg 62%
23:00 +6°C° 0 mm 1 m/s 686 mmHg 60%

19 Janeiro, Terça-feira

Tempo Temperatura Precipitação Vento Pressão Humidade
00:00 +5°C° 0 mm 0 m/s 685 mmHg 57%
01:00 +4°C° 0 mm 0 m/s 685 mmHg 56%
02:00 +4°C° 0 mm 0 m/s 685 mmHg 54%
03:00 +4°C° 0 mm 0 m/s 685 mmHg 53%
04:00 +4°C° 0 mm 0 m/s 685 mmHg 53%
05:00 +4°C° 0 mm 0 m/s 684 mmHg 53%
06:00 +4°C° 0 mm 0 m/s 684 mmHg 52%
07:00 +6°C° 0 mm 1 m/s 685 mmHg 51%
08:00 +8°C° 0 mm 1 m/s 685 mmHg 50%
09:00 +9°C° 0 mm 1 m/s 686 mmHg 48%
10:00 +10°C° 0 mm 1 m/s 686 mmHg 46%
11:00 +11°C° 0 mm 1 m/s 686 mmHg 45%
12:00 +10°C° 0 mm 2 m/s 686 mmHg 43%
13:00 +10°C° 0 mm 2 m/s 685 mmHg 44%
14:00 +10°C° 0 mm 2 m/s 684 mmHg 44%
15:00 +10°C° 0 mm 2 m/s 684 mmHg 45%
16:00 +9°C° 0 mm 2 m/s 684 mmHg 48%
17:00 +7°C° 0 mm 2 m/s 684 mmHg 52%
18:00 +6°C° 0 mm 2 m/s 683 mmHg 56%
19:00 +5°C° 0 mm 2 m/s 683 mmHg 51%
20:00 +5°C° 0 mm 2 m/s 683 mmHg 46%
21:00 +5°C° 0 mm 2 m/s 683 mmHg 42%
22:00 +5°C° 0 mm 2 m/s 683 mmHg 42%
23:00 +5°C° 0 mm 2 m/s 683 mmHg 42%

20 Janeiro, Quarta-feira

Tempo Temperatura Precipitação Vento Pressão Humidade
00:00 +5°C° 0 mm 2 m/s 682 mmHg 42%
01:00 +5°C° 0 mm 2 m/s 682 mmHg 42%
02:00 +5°C° 0 mm 2 m/s 682 mmHg 41%
03:00 +4°C° 0 mm 3 m/s 681 mmHg 41%
04:00 +4°C° 0 mm 3 m/s 681 mmHg 42%
05:00 +4°C° 0 mm 3 m/s 681 mmHg 43%
06:00 +4°C° 0 mm 3 m/s 680 mmHg 45%
07:00 +5°C° 0 mm 3 m/s 680 mmHg 46%
08:00 +7°C° 0 mm 3 m/s 681 mmHg 47%
09:00 +7°C° 0 mm 3 m/s 681 mmHg 48%
10:00 +8°C° 0 mm 3 m/s 680 mmHg 47%
11:00 +8°C° 0 mm 4 m/s 680 mmHg 46%
12:00 +10°C° 0 mm 4 m/s 680 mmHg 45%
13:00 +8°C° 0.1 mm 5 m/s 679 mmHg 50%
14:00 +8°C° 0.1 mm 5 m/s 679 mmHg 55%
15:00 +7°C° 0.1 mm 5 m/s 678 mmHg 60%
16:00 +7°C° 1.2 mm 4 m/s 678 mmHg 71%
17:00 +6°C° 1.2 mm 4 m/s 678 mmHg 81%
18:00 +6°C° 1.2 mm 4 m/s 678 mmHg 91%
19:00 +5°C° 0.2 mm 4 m/s 678 mmHg 91%
20:00 +5°C° 0.2 mm 4 m/s 679 mmHg 92%
21:00 +5°C° 0.2 mm 4 m/s 679 mmHg 92%
22:00 +5°C° 0.1 mm 4 m/s 679 mmHg 92%
23:00 +5°C° 0.1 mm 4 m/s 679 mmHg 91%

21 Janeiro, Quinta-feira

Tempo Temperatura Precipitação Vento Pressão Humidade
00:00 +5°C° 0.1 mm 4 m/s 679 mmHg 90%
01:00 +5°C° 0 mm 3 m/s 680 mmHg 89%
02:00 +5°C° 0 mm 3 m/s 680 mmHg 88%
03:00 +5°C° 0 mm 3 m/s 680 mmHg 87%
04:00 +5°C° 0 mm 3 m/s 680 mmHg 86%
05:00 +5°C° 0 mm 3 m/s 680 mmHg 85%
06:00 +5°C° 0 mm 3 m/s 680 mmHg 85%
07:00 +7°C° 0 mm 3 m/s 680 mmHg 83%
08:00 +7°C° 0 mm 3 m/s 681 mmHg 82%
09:00 +8°C° 0 mm 3 m/s 681 mmHg 80%
10:00 +8°C° 0 mm 4 m/s 681 mmHg 78%
11:00 +8°C° 0 mm 4 m/s 681 mmHg 77%
12:00 +10°C° 0 mm 4 m/s 681 mmHg 76%
13:00 +9°C° 0 mm 5 m/s 681 mmHg 76%
14:00 +9°C° 0 mm 5 m/s 681 mmHg 76%
15:00 +9°C° 0 mm 5 m/s 681 mmHg 77%
16:00 +8°C° 0 mm 5 m/s 680 mmHg 81%
17:00 +7°C° 0 mm 5 m/s 680 mmHg 86%
18:00 +6°C° 0 mm 4 m/s 680 mmHg 90%
19:00 +6°C° 0 mm 4 m/s 680 mmHg 86%
20:00 +6°C° 0 mm 4 m/s 680 mmHg 82%
21:00 +7°C° 0 mm 4 m/s 679 mmHg 77%
22:00 +7°C° 0.3 mm 4 m/s 679 mmHg 82%
23:00 +7°C° 0.3 mm 5 m/s 679 mmHg 87%
Mostrar mais

Necessitamos do seu Consentimento

A Meteoprog e os seus Fornecedores de Serviços podem armazenar e aceder a dados pessoais como cookies, identificadores do dispositivo ou outras tecnologias semelhantes existentes no seu dispositivo e processar estes dados para personalizar conteúdos e anúncios, assim como funcionalidades nas redes sociais e análise de tráfego.

  • Armazenar e/ou aceder a informações no seu dispositivo

    Os cookies, identificadores do dispositivo ou outras informações podem ser armazenados ou acedidos no seu dispositivo, para os fins acima indicados.

  • Anúncios e conteúdos personalizados, medição de anúncios e conteúdos, dados sobre o público-alvo e desenvolvimento de produtos

    Os anúncios e os conteúdos podem ser personalizados com base num perfil. Podem ser adicionados dados adicionais para uma maior personalização dos anúncios e dos conteúdos. A eficácia dos anúncios e dos conteúdos pode ser medida. Podem ser obtidas informações sobre o público que visualizou os anúncios e os conteúdos. Estes dados podem ser usados para desenvolver ou melhorar sistemas, softwares ou a experiência do utilizador.

Ao clicar em "Eu concordo”, permitirá o uso de cookies, identificadores do dispositivo e web beacons mencionados ou outras tecnologias semelhantes. As configurações do navegador do seu dispositivo podem ser alteradas.

Para certos fins, podem ser invocados interesses legítimos ao invés de consentimento. Pode ler mais informação sobre este assunto na nossa Política de Privacidade e Cookies.